This is the latest recevied weather packets stored in our database for station/object N9WHM. If no packets are shown the sender has not sent any weather packets the latest 10 day(s).
| Time | Temp. | Humidity | Pressure | Rain* | Wind** | Luminosity | Snow |
|---|---|---|---|---|---|---|---|
| 1778241745 | 8.33° C | 58% | 1009.6 hPa | 0 mm | - | 30 W/m² | - |
| 1778241442 | 7.78° C | 60% | 1009.3 hPa | 0 mm | - | 31 W/m² | - |
| 1778241140 | 7.78° C | 60% | 1009.5 hPa | 0 mm | - | 23 W/m² | - |
| 1778240836 | 7.78° C | 61% | 1009.3 hPa | 0 mm | - | 20 W/m² | - |
| 1778240533 | 7.78° C | 60% | 1009.1 hPa | 0 mm | - | 17 W/m² | - |
| 1778240229 | 7.78° C | 61% | 1009.1 hPa | 0 mm | - | 14 W/m² | - |
| 1778239928 | 7.78° C | 59% | 1009 hPa | 0 mm | - | 11 W/m² | - |
| 1778239623 | 7.78° C | 60% | 1008.9 hPa | 0 mm | - | 8 W/m² | - |
| 1778239321 | 8.33° C | 60% | 1009.1 hPa | 0 mm | - | 6 W/m² | - |
| 1778239017 | 8.33° C | 59% | 1009.1 hPa | 0 mm | - | 4 W/m² | - |
| 1778238715 | 8.33° C | 59% | 1009.1 hPa | 0 mm | - | 2 W/m² | - |
| 1778238412 | 8.33° C | 59% | 1009.1 hPa | 0 mm | - | 1 W/m² | - |
| 1778238109 | 8.89° C | 59% | 1009.1 hPa | 0 mm | - | 1 W/m² | - |
| 1778237803 | 8.33° C | 58% | 1009 hPa | 0 mm | - | 0 W/m² | - |
| 1778237501 | 8.33° C | 58% | 1009.1 hPa | 0 mm | - | 0 W/m² | - |
| 1778237198 | 8.89° C | 57% | 1008.9 hPa | 0 mm | - | 0 W/m² | - |
| 1778236895 | 8.89° C | 56% | 1009 hPa | 0 mm | - | 0 W/m² | - |
| 1778236592 | 8.89° C | 57% | 1009 hPa | 0 mm | - | 0 W/m² | - |
| 1778236289 | 9.44° C | 57% | 1009 hPa | 0 mm | - | 0 W/m² | - |
| 1778235986 | 9.44° C | 56% | 1009 hPa | 0 mm | - | 0 W/m² | - |
| 1778235685 | 9.44° C | 53% | 1009.1 hPa | 0 mm | - | 0 W/m² | - |
| 1778235381 | 9.44° C | 56% | 1009 hPa | 0 mm | - | 0 W/m² | - |
| 1778235079 | 10° C | 54% | 1009.1 hPa | 0 mm | - | 0 W/m² | - |
| 1778234776 | 9.44° C | 53% | 1009.3 hPa | 0 mm | - | 0 W/m² | - |
| 1778234474 | 10° C | 53% | 1009.2 hPa | 0 mm | - | 0 W/m² | - |
* Rain latest hour (hover to see other rain measurements)
** Current wind speed in m/s (hover to see current wind gust speed)